Wind_Speed
20 19 18 17 16 14 12 10 8 6 5 4 4 4 5 6 8 9 10 11 13 14 15 17 17 17 17 17 17 18 19 20 21 22 22 23 23 24 24 26 27 27 27
22 21 19 17 16 14 13 12 10 7 6 5 6 6 7 8 9 10 11 13 14 15 16 17 18 18 19 19 19 19 20 21 22 22 23 24 25 25 26 27 28 29 29
23 21 19 17 15 14 13 12 11 9 8 7 7 8 9 9 10 11 12 14 16 17 18 18 18 19 20 20 21 22 22 22 23 24 26 27 27 28 29 30 32 33 34
22 21 19 18 16 14 14 13 12 10 9 8 9 9 10 10 11 13 14 15 17 18 19 19 19 20 21 22 23 24 25 26 27 28 29 30 31 32 33 34 35 37 37
23 22 20 19 17 16 15 14 14 12 10 10 10 11 11 11 12 13 15 17 18 20 20 19 19 20 22 23 25 27 28 29 31 32 33 35 36 37 38 39 39 40 40
25 23 21 20 20 17 15 15 14 14 12 11 11 11 12 12 13 15 16 18 19 19 20 20 21 22 23 25 27 29 31 33 35 36 37 39 40 41 42 43 44 44 43
25 23 21 20 19 18 17 16 14 14 14 13 12 12 12 12 14 16 18 20 20 20 20 21 22 24 26 28 30 31 33 35 38 40 41 42 43 44 45 46 46 46 46
26 24 22 20 19 18 17 16 15 13 15 14 12 13 13 14 16 17 19 21 21 21 22 23 24 26 28 31 33 36 38 39 41 42 44 45 46 47 48 48 49 49 50
27 25 21 20 18 17 16 16 15 13 14 13 13 13 14 15 17 19 20 21 20 21 22 25 27 30 33 35 37 39 41 43 44 46 47 48 49 50 50 49 49 50 50
26 24 21 20 18 17 17 16 14 13 14 13 12 13 14 16 19 19 20 20 20 21 23 26 30 34 36 39 42 43 44 46 48 49 50 51 50 50 49 49 50 50 50
27 25 22 20 18 17 16 16 14 13 13 11 13 14 16 18 20 19 20 20 21 23 25 29 33 37 40 42 44 46 47 49 50 50 51 51 51 51 52 52 53 53 51
24 23 22 21 19 17 16 16 15 14 11 13 14 15 16 18 19 19 19 20 21 23 26 30 35 38 41 43 45 48 49 50 50 51 52 54 56 56 55 53 52 51 49
24 22 21 19 16 15 15 13 12 10 11 12 15 17 17 19 18 19 20 23 25 26 27 31 35 38 41 45 47 49 51 52 52 54 55 55 56 55 54 52 50 49 47
25 23 21 19 17 16 15 13 11 11 10 15 18 17 19 18 18 21 23 27 30 32 33 34 35 39 42 46 48 50 51 52 52 53 53 52 52 50 48 47 46 45 45
22 23 22 20 17 17 15 13 14 16 14 14 15 19 18 19 20 23 26 30 35 40 41 41 41 43 45 48 49 50 50 50 49 48 48 47 45 45 44 43 43 43 43
40 40 24 20 19 21 21 19 17 12 13 16 16 17 17 19 22 26 30 33 36 39 43 44 45 47 47 48 48 48 50 49 47 47 47 45 42 40 38 37 36 36 35
35 41 31 32 31 28 25 15 11 10 12 15 15 16 18 21 25 29 32 33 37 40 43 45 44 45 45 46 46 45 46 46 45 45 44 43 41 38 34 32 31 30 29
41 38 25 22 25 6 9 10 10 11 14 13 14 16 20 24 28 30 31 35 38 41 44 45 43 42 42 43 43 42 41 43 41 41 39 38 38 36 32 31 29 26 25
20 18 15 12 8 10 9 8 10 10 11 13 16 19 23 27 28 31 34 36 39 40 41 43 43 42 42 40 37 37 37 38 37 34 34 33 32 30 30 29 28 25 23
18 18 11 9 6 7 7 9 10 10 12 15 18 22 24 26 30 33 36 38 37 37 38 38 39 39 37 35 35 34 31 32 31 31 29 25 26 27 28 29 29 26 23
15 8 9 7 7 10 9 9 9 11 14 17 20 22 25 29 33 36 36 35 35 36 36 37 37 34 31 30 30 29 30 30 29 31 29 26 25 23 24 26 28 26 24
14 13 10 9 10 10 9 9 9 12 16 20 20 24 28 32 35 36 34 33 36 37 36 36 32 28 27 29 29 30 30 30 31 30 30 25 25 22 24 26 26 23 23
14 12 11 10 8 7 7 9 12 15 19 19 22 26 30 35 36 34 31 32 33 35 35 32 27 26 26 28 29 28 28 28 29 31 30 29 28 25 24 25 26 22 21
12 10 10 8 8 6 8 11 14 17 19 21 25 30 32 36 34 32 30 31 32 31 29 27 25 25 26 27 25 25 26 26 25 29 28 27 28 23 24 24 24 25 23
13 11 9 8 5 7 9 13 16 19 21 25 28 31 34 32 30 31 31 30 29 26 24 23 23 23 25 23 23 25 26 28 26 27 26 26 28 22 19 23 24 22 22
7 8 7 7 5 7 10 15 18 19 23 26 30 33 32 30 29 30 30 29 25 22 20 21 22 23 22 21 23 27 30 31 31 27 30 26 25 28 23 19 22 20 19
Wind_Direction
204 205 205 207 211 211 213 209 214 222 235 253 269 282 288 293 298 304 309 310 311 312 312 312 310 309 308 308 307 308 308 307 307 307 307 307 306 305 304 302 300 298 296
203 204 207 210 215 215 218 220 216 225 237 252 269 279 284 289 297 306 310 312 312 313 313 313 312 311 311 311 311 311 311 310 309 308 307 307 306 305 304 303 301 299 298
202 204 206 212 220 222 222 227 227 226 238 253 265 274 280 288 298 305 310 313 314 315 315 312 311 312 313 313 313 313 312 310 308 307 307 306 305 304 303 302 301 299 297
204 203 207 212 221 228 230 233 234 233 239 253 264 271 278 288 298 306 309 312 313 314 313 313 314 314 314 314 313 312 312 311 310 309 308 307 305 304 303 301 299 297 296
206 206 208 212 217 226 234 238 241 238 237 248 260 269 276 286 296 303 307 311 313 312 310 311 312 312 312 311 311 311 311 310 309 308 307 306 305 304 302 300 298 296 294
205 207 210 216 217 218 233 239 244 247 245 247 256 266 274 285 296 302 305 308 309 309 308 308 309 309 310 309 309 310 310 309 308 307 306 305 305 304 303 301 299 297 294
206 210 212 217 225 221 226 239 242 248 250 248 252 261 273 288 296 300 303 305 306 305 306 308 309 309 309 309 308 308 307 307 307 306 306 306 306 304 303 301 299 297 294
204 210 214 217 225 230 228 235 242 249 258 258 260 270 276 285 293 298 302 304 305 306 308 309 308 308 307 307 307 308 308 308 308 308 307 306 305 304 303 300 298 296 295
207 208 213 219 225 233 240 238 240 245 260 262 266 271 283 292 296 299 302 302 304 306 308 308 307 308 308 308 309 309 309 308 307 307 306 305 303 301 300 299 298 297 297
208 210 210 217 223 230 237 244 247 246 249 256 268 280 288 290 292 297 299 301 304 305 307 307 308 308 309 309 309 308 308 307 307 305 304 302 301 300 298 297 295 294 294
206 211 210 215 220 226 232 239 244 247 253 269 279 284 290 295 299 302 302 302 303 306 308 309 310 310 309 308 307 307 307 305 304 304 303 302 301 299 298 296 294 292 290
208 212 212 213 217 222 228 233 236 239 256 267 275 283 285 292 294 296 296 298 303 308 309 308 306 305 305 305 305 305 305 305 305 304 303 303 302 301 300 298 295 293 289
210 213 220 222 220 225 226 228 237 253 263 277 286 282 294 295 296 296 297 301 302 302 303 302 302 304 305 306 306 306 305 306 307 307 306 305 303 302 299 297 295 293 290
206 211 214 216 213 213 216 224 233 246 280 281 289 291 290 292 296 297 301 304 304 306 307 306 306 307 307 306 306 306 306 307 308 308 306 303 301 299 299 296 294 292 289
209 212 212 205 210 221 225 233 251 260 278 276 295 291 295 296 297 300 303 309 311 312 313 314 314 312 310 309 309 310 310 311 310 308 305 303 301 299 297 295 294 292 291
252 238 225 220 244 258 262 243 250 262 285 286 286 286 289 294 300 308 311 312 312 312 312 315 315 314 314 314 314 314 314 315 315 311 309 307 304 302 301 299 296 294 292
248 236 241 245 241 245 255 271 270 273 285 282 284 286 294 304 309 311 311 311 311 311 311 311 313 314 315 314 316 318 318 315 315 312 310 310 307 306 302 301 299 297 296
234 236 225 232 239 202 229 245 267 275 267 273 282 297 306 309 309 310 311 310 311 311 311 312 314 313 316 319 320 320 317 315 317 313 311 308 303 302 303 302 304 304 301
206 220 209 201 195 216 228 251 257 267 277 285 298 307 309 307 308 309 311 311 311 311 311 313 315 319 322 322 319 320 322 321 320 318 317 312 308 311 308 307 304 305 300
191 198 202 190 195 229 249 259 263 274 287 297 303 303 306 309 309 311 312 312 311 311 312 315 319 322 321 319 323 325 328 330 328 326 330 328 326 320 314 312 308 307 301
201 169 198 200 223 238 242 247 262 279 290 299 306 309 309 312 314 313 314 314 312 312 318 321 321 320 319 323 326 328 334 339 340 332 334 333 325 324 317 310 305 301 297
173 185 192 208 219 226 235 256 280 293 304 307 309 312 316 316 315 316 317 316 316 320 322 320 319 319 324 327 328 331 336 341 341 338 345 340 333 327 317 314 314 307 296
164 184 190 200 216 230 259 283 295 305 308 308 311 314 316 316 318 316 317 318 320 321 318 317 318 321 324 326 329 337 343 346 339 335 340 338 339 339 328 317 320 318 306
175 186 191 201 223 247 275 292 301 310 305 308 312 313 318 317 315 314 322 324 320 318 316 313 317 320 324 327 333 341 344 346 347 335 338 336 332 342 334 330 323 322 320
179 179 188 205 229 261 290 303 306 313 306 307 309 316 317 313 318 322 323 320 319 315 313 315 316 319 324 329 332 333 335 334 337 337 339 337 336 348 338 332 331 333 327
168 194 210 223 237 280 306 309 310 310 303 311 317 315 317 321 321 321 321 320 317 318 313 313 316 322 325 327 328 330 331 332 331 334 331 341 336 339 349 344 335 339 335
Height
3141 3144 3146 3149 3150 3151 3153 3153 3154 3155 3157 3157 3158 3158 3158 3158 3158 3158 3157 3156 3155 3155 3154 3153 3152 3150 3148 3147 3146 3144 3143 3142 3140 3139 3137 3136 3134 3132 3131 3129 3128 3126 3124
3137 3139 3142 3145 3147 3148 3150 3151 3151 3152 3153 3154 3155 3155 3155 3155 3155 3155 3154 3153 3152 3151 3150 3149 3148 3146 3145 3143 3142 3140 3139 3137 3136 3134 3133 3131 3129 3128 3126 3124 3122 3121 3119
3132 3135 3138 3141 3144 3145 3147 3148 3149 3149 3150 3151 3151 3152 3152 3152 3152 3151 3151 3150 3149 3148 3147 3146 3144 3143 3141 3140 3138 3136 3135 3133 3131 3129 3127 3125 3124 3122 3120 3117 3115 3114 3112
3129 3131 3134 3136 3139 3141 3143 3145 3146 3146 3146 3147 3148 3148 3148 3149 3148 3148 3147 3146 3145 3144 3143 3142 3140 3139 3137 3136 3134 3132 3130 3129 3127 3124 3122 3119 3117 3115 3113 3110 3108 3106 3104
3125 3127 3129 3132 3134 3137 3139 3141 3142 3143 3143 3143 3144 3145 3145 3145 3145 3144 3143 3143 3142 3141 3139 3138 3136 3135 3133 3131 3129 3127 3125 3123 3120 3118 3115 3112 3110 3107 3104 3102 3099 3097 3094
3120 3123 3125 3128 3130 3132 3135 3137 3138 3140 3140 3140 3141 3141 3142 3141 3141 3141 3140 3139 3138 3136 3135 3133 3132 3130 3127 3125 3123 3121 3119 3116 3113 3110 3107 3104 3101 3097 3094 3091 3089 3086 3083
3115 3119 3121 3124 3127 3127 3129 3132 3134 3135 3136 3136 3137 3137 3138 3138 3137 3137 3136 3135 3134 3132 3131 3129 3127 3125 3123 3120 3117 3115 3112 3109 3106 3102 3098 3094 3091 3087 3084 3080 3077 3073 3070
3111 3114 3117 3120 3123 3124 3125 3127 3129 3131 3133 3133 3134 3134 3135 3135 3134 3133 3132 3131 3129 3128 3126 3124 3122 3119 3117 3114 3111 3108 3105 3101 3097 3093 3089 3085 3081 3077 3073 3069 3064 3060 3057
3108 3110 3113 3116 3118 3120 3122 3123 3124 3126 3129 3130 3130 3131 3130 3130 3130 3129 3128 3127 3125 3123 3121 3118 3115 3112 3110 3107 3104 3101 3096 3092 3088 3084 3079 3075 3070 3066 3061 3057 3052 3048 3045
3103 3106 3108 3110 3113 3115 3117 3119 3121 3121 3123 3124 3126 3126 3126 3126 3125 3124 3122 3121 3119 3118 3115 3112 3108 3105 3102 3099 3095 3091 3087 3082 3077 3073 3068 3064 3059 3054 3049 3045 3041 3037 3033
3096 3100 3102 3105 3107 3110 3112 3114 3116 3118 3119 3120 3121 3121 3121 3121 3120 3119 3117 3117 3115 3113 3110 3107 3102 3098 3094 3090 3085 3081 3077 3072 3067 3062 3057 3051 3046 3041 3037 3032 3028 3023 3020
3092 3096 3098 3100 3103 3105 3108 3110 3112 3114 3113 3115 3116 3116 3116 3115 3114 3113 3112 3111 3110 3108 3105 3101 3096 3092 3087 3082 3077 3071 3067 3062 3056 3050 3044 3037 3031 3025 3021 3017 3012 3008 3004
3088 3091 3095 3098 3099 3102 3105 3107 3109 3110 3111 3112 3111 3112 3111 3110 3108 3107 3106 3105 3104 3103 3101 3097 3090 3085 3079 3073 3067 3061 3056 3050 3044 3037 3030 3023 3017 3012 3007 3003 2998 2994 2990
3082 3086 3089 3093 3095 3098 3100 3102 3103 3105 3106 3108 3108 3106 3106 3104 3103 3102 3100 3097 3095 3092 3091 3088 3084 3078 3071 3064 3058 3052 3045 3039 3033 3026 3019 3013 3007 3001 2995 2990 2985 2981 2978
3078 3081 3085 3088 3091 3095 3096 3098 3099 3100 3099 3102 3100 3102 3101 3100 3099 3096 3093 3089 3085 3080 3076 3075 3071 3065 3060 3053 3047 3039 3033 3027 3022 3015 3008 3002 2996 2990 2984 2979 2974 2970 2966
3077 3080 3084 3086 3089 3091 3092 3093 3092 3094 3094 3097 3097 3096 3095 3096 3094 3089 3085 3081 3078 3073 3067 3063 3059 3053 3047 3040 3034 3027 3020 3014 3008 3001 2994 2989 2984 2979 2974 2969 2965 2960 2956
3072 3072 3077 3080 3085 3085 3087 3087 3089 3092 3091 3094 3093 3093 3091 3090 3087 3083 3078 3075 3071 3065 3060 3056 3050 3044 3038 3031 3025 3018 3010 3004 2999 2991 2983 2977 2971 2967 2963 2959 2955 2951 2948
3064 3067 3071 3074 3077 3079 3083 3085 3088 3088 3091 3090 3088 3086 3084 3083 3081 3077 3072 3069 3064 3057 3050 3046 3042 3037 3031 3023 3016 3010 3005 2997 2991 2982 2975 2969 2962 2958 2954 2950 2947 2944 2941
3058 3065 3068 3070 3075 3080 3081 3083 3087 3085 3086 3085 3083 3080 3079 3077 3074 3071 3066 3061 3056 3049 3043 3037 3031 3026 3019 3014 3010 3005 2998 2990 2983 2974 2967 2961 2954 2950 2946 2943 2940 2938 2935
3055 3062 3066 3067 3070 3075 3078 3080 3081 3080 3081 3080 3078 3076 3074 3071 3068 3064 3059 3052 3047 3042 3037 3030 3023 3018 3013 3009 3002 2996 2992 2984 2977 2969 2962 2955 2951 2946 2941 2937 2933 2931 2929
3055 3057 3061 3065 3071 3075 3076 3076 3076 3076 3077 3075 3072 3070 3068 3064 3060 3055 3050 3044 3038 3033 3027 3022 3016 3013 3008 3003 2997 2991 2985 2978 2970 2962 2957 2952 2947 2943 2937 2932 2928 2926 2924
3052 3055 3059 3064 3068 3072 3072 3072 3071 3072 3071 3069 3066 3064 3060 3056 3052 3045 3041 3035 3029 3022 3018 3015 3010 3007 3002 2997 2991 2985 2978 2971 2964 2960 2954 2948 2942 2938 2932 2927 2923 2920 2918
3050 3055 3059 3061 3064 3068 3068 3068 3068 3066 3065 3064 3060 3058 3054 3048 3043 3038 3035 3028 3022 3015 3010 3008 3004 3001 2996 2991 2986 2979 2973 2967 2961 2955 2951 2944 2939 2934 2928 2922 2918 2915 2913
3051 3053 3057 3059 3062 3064 3063 3063 3064 3058 3062 3059 3054 3053 3046 3041 3036 3033 3027 3020 3016 3011 3006 3003 2998 2994 2990 2985 2979 2974 2970 2966 2961 2953 2948 2942 2936 2932 2925 2919 2915 2911 2908
3051 3053 3056 3060 3057 3060 3059 3060 3060 3052 3058 3053 3050 3045 3039 3036 3028 3023 3019 3016 3010 3006 3002 2997 2993 2990 2985 2980 2975 2971 2967 2963 2958 2952 2946 2940 2932 2930 2924 2917 2913 2909 2905
3045 3049 3053 3055 3054 3056 3056 3056 3054 3050 3054 3047 3041 3037 3032 3026 3022 3018 3014 3009 3005 3001 2996 2993 2989 2984 2980 2976 2972 2967 2962 2957 2951 2948 2941 2938 2931 2923 2921 2917 2911 2907 2903